User: anonymous   Login
Location: Peebles
(55.6412°N, 3.1714°W)
Time: 06:28:48
(UTC+00:00)
Language:

DMSP B5D2-2 - Orbit

View from above orbital plane
View from above orbital plane
View from above satellite
View from above satellite

Ground track
Ground track

The orbit data is extracted from the following two-line orbital elements,

1 14506U 83113A   21336.53355726  .00000079  00000-0  48104-4 0  9990
2 14506  98.2874 169.2235 0012355  89.1286 289.1269 14.28186434978769
Epoch (UTC): 02 December 2021 12:48:19
Eccentricity: 0.0012355
inclination: 98.2874°
perigee height: 789 km
apogee height: 806 km
right ascension of ascending node: 169.2235°
argument of perigee: 89.1286°
revolutions per day: 14.28186434
mean anomaly at epoch: 289.1269°
orbit number at epoch: 97876

The dashed part of the orbit path shows where the satellite is in the earth's shadow,  

DLR